Starlink 5671

operational
NORAD ID: 55339 Int'l Des: 2023-013 Owner: SPXS Country: US Constellation: starlink
LEOCIRCULAR

About Starlink 5671

Description loading...

Live Position

Loading 3D Globe...

Upcoming Passes

Altitude History

Altitude vs Time

uPlot chart will show altitude changes over time

Two-Line Element Set

1 55339U 23013J 25258.16454920 -.00000117 00000-0 64301-5 0 9996
2 55339 43.0025 174.2774 0001027 270.2004 89.8721 15.02532384145309
Epoch: Sep 15, 2025 • Age: 17 hours

Current Status

Altitude 562.0 km
Velocity 7.58 km/s
Sub-Earth Point -15.76°S, 60.85°E
Launch Date Jan 26, 2023
Age 2.6 years
Type internet

Technical Details

Classification Payload
Mass 305.00 kg
Dry Mass 290.00 kg
Total Mass 305.00 kg
Length 0.20 m
Diameter 2.80 m
Span 9.00 m
Shape Box + pan
Manufacturer SPXS
Bus Type Starlink
Phase Status In Orbit
Owner/State SPXS/US

Large Constellations

Loading constellations...